SB KEPS @ AMSAT $ORB08164.N 2Line Orbital Elements 08164.AMSAT
HR AMSAT ORBITAL ELEMENTS FOR AMATEUR SATELLITES IN NASA FORMAT FROM WA5QGD FORT WORTH,TX June 12, 2008 Send Subscribe/unsubscribe to KEPS at http://www.amsat.org/mailman/listinfo/keps BID: ORB08164.N
DECODE 2-LINE ELSETS WITH THE FOLLOWING KEY: 1 AAAAAU 00 0 0 BBBBB.BBBBBBBB .CCCCCCCC 00000-0 00000-0 0 DDDZ 2 AAAAA EEE.EEEE FFF.FFFF GGGGGGG HHH.HHHH III.IIII JJ.JJJJJJJJKKKKKZ KEY: A-CATALOGNUM B-EPOCHTIME C-DECAY D-ELSETNUM E-INCLINATION F-RAAN G-ECCENTRICITY H-ARGPERIGEE I-MNANOM J-MNMOTION K-ORBITNUM Z-CHECKSUM
TO ALL RADIO AMATEURS BT
AO-07 1 07530U 74089B 08163.70711665 -.00000027 00000-0 10000-3 0 02014 2 07530 101.4660 195.3879 0011569 273.5729 086.4015 12.53573841536292 AO-10 1 14129U 83058B 08163.40471932 .00000157 00000-0 10000-3 0 05172 2 14129 025.9622 210.9212 5985453 131.1601 298.5147 02.05867520187988 UO-11 1 14781U 84021B 08163.84331037 -.00000243 00000-0 -25127-4 0 06947 2 14781 098.1528 197.7970 0010193 090.7985 269.4393 14.79645720303061 RS-15 1 23439U 94085A 08163.95834534 -.00000039 00000-0 10000-3 0 01793 2 23439 064.8142 143.5010 0147470 123.8255 237.6803 11.27552232554374 FO-29 1 24278U 96046B 08163.79666750 .00000042 00000-0 81079-4 0 08008 2 24278 098.5852 080.7912 0350001 229.4327 127.5856 13.52938108583669 SO-33 1 25509U 98061B 08163.73786713 -.00000105 00000-0 -32912-4 0 02188 2 25509 031.4355 347.1603 0355016 339.5214 019.1515 14.28214371502838 AO-40 1 26609U 00072B 08163.23680576 -.00000066 00000-0 10000-3 0 759 2 26609 007.5807 078.1579 7915374 090.2424 349.6788 01.25583634 34960 VO-52 1 28650U 05017B 08164.88101300 -.00000066 00000-0 -17868-5 0 9544 2 28650 097.7901 231.6101 0027807 152.6078 207.6643 14.81471116167964 PO-63 1 29712U 07001D 08164.83008721 .00000427 00000-0 62923-4 0 5262 2 29712 097.8751 223.0984 0015194 039.4072 320.8232 14.80179209 76827 AO-16 1 20439U 90005D 08164.87786119 .00000009 00000-0 18692-4 0 3430 2 20439 098.2295 145.1612 0010533 184.9105 175.1966 14.31795740960309 LO-19 1 20442U 90005G 08163.52846113 -.00000061 00000-0 -75037-5 0 02702 2 20442 098.2007 152.4350 0011795 186.4025 173.7001 14.32033517960260 AO-27 1 22825U 93061C 08163.67011409 -.00000029 00000-0 50078-5 0 9902 2 22825 098.3833 123.8979 0007469 277.1895 082.8429 14.29240399766981 IO-26 1 22826U 93061D 08163.86510828 -.00000004 00000-0 15004-4 0 06979 2 22826 098.3760 124.9985 0008062 275.3778 084.6481 14.29489442767107 PO-28 1 22829U 93061G 08163.85422792 -.00000044 00000-0 -95498-6 0 09675 2 22829 098.3638 126.0933 0008799 244.1184 115.9097 14.30190636767367 GO-32 1 25397U 98043D 08163.76721333 .00000113 00000-0 67997-4 0 6208 2 25397 098.3631 199.1980 0000361 219.2151 140.8998 14.23145043515441 NO-44 1 26931U 01043C 08163.82848947 -.00000104 00000-0 -84701-5 0 09023 2 26931 067.0522 298.4601 0006735 275.1541 084.8802 14.29524244349644 SO-50 1 27607U 02058C 08163.70493639 -.00000061 00000-0 12914-4 0 06262 2 27607 064.5580 070.2890 0085670 280.3356 078.8123 14.71361388294164 CO-55 1 27844U 03031E 08163.59079746 .00000019 00000-0 28960-4 0 03260 2 27844 098.7146 171.9353 0010553 127.8403 232.3724 14.20583045256648 CO-57 1 27848U 03031J 08164.57433217 .00000005 00000-0 22759-4 0 2770 2 27848 098.7154 172.0025 0010411 129.0912 231.1192 14.20391678256758 AO-51 1 28375U 04025K 08163.56177424 .00000020 00000-0 18508-4 0 01237 2 28375 098.0709 188.4489 0083477 169.2598 191.0399 14.40610535207595 CO-56 1 28941U 06005C 08164.57315436 .00017861 24708-5 13322-3 0 1241 2 28941 098.1068 274.6417 0166699 058.1614 303.5670 15.57105706129329 CP4 1 31122U 07012F 08163.66106387 .00000550 00000-0 13192-3 0 03616 2 31122 098.0412 229.4563 0085494 346.8880 013.0078 14.55132790061275 CP3 1 31128U 07012M 08163.68422307 -.00000048 00000-0 00000-0 0 03543 2 31128 098.0388 227.3549 0102903 352.6427 007.3257 14.51951441061139 NOAA-10 1 16969U 86073A 08163.68688791 -.00000107 00000-0 -25665-4 0 01569 2 16969 098.7214 185.6681 0011960 193.6744 166.4115 14.27360929130652 NOAA-11 1 19531U 88089A 08163.79313909 .00000196 00000-0 12398-3 0 01951 2 19531 098.7978 253.1930 0012445 084.2506 276.0085 14.14873067017145 NOAA-12 1 21263U 91032A 08163.79739776 -.00000070 00000-0 -10630-4 0 07106 2 21263 098.7653 165.7496 0013089 137.8788 222.3371 14.25534842887624 MET-3/5 1 21655U 91056A 08163.95130906 .00000051 00000-0 10000-3 0 05515 2 21655 082.5519 108.0825 0014736 029.7247 330.4710 13.17015899808892 MET-2/21 1 22782U 93055A 08163.85805841 .00000176 00000-0 14626-3 0 1662 2 22782 082.5472 115.8065 0021338 308.3632 051.5618 13.83629430746393 OKEAN-4 1 23317U 94066A 08164.73754833 .00000230 00000-0 25434-4 0 6129 2 23317 082.5393 319.2197 0023311 138.3796 221.9190 14.82617241737622 NOAA-14 1 23455U 94089A 08163.74447978 .00000256 00000-0 15907-3 0 01784 2 23455 098.9464 235.9846 0009900 155.5372 204.6253 14.13744891693589 SICH-1 1 23657U 95046A 08164.75796699 .00000195 00000-0 21689-4 0 4107 2 23657 082.5273 100.1884 0025044 131.1996 229.1395 14.81584920689566 NOAA-15 1 25338U 98030A 08163.94980071 .00000123 00000-0 71370-4 0 05003 2 25338 098.5532 155.9411 0011658 060.0545 300.1826 14.24706996524056 RESURS 1 25394U 98043A 08163.98017638 .00000014 00000-0 23998-4 0 09492 2 25394 098.3890 208.1781 0000782 177.1780 182.9404 14.24161680515706 FENGYUN1 1 25730U 99025A 08163.93978008 -.00000143 00000-0 -59747-4 0 04636 2 25730 098.7222 139.9046 0019500 181.2269 178.8857 14.07683925468226 OKEAN-0 1 25860U 99039A 08163.61615400 .00000007 00000-0 82457-5 0 03916 2 25860 097.7491 154.4102 0000848 039.7928 320.3340 14.73524474478572 NOAA-16 1 26536U 00055A 08163.82360941 .00000027 00000-0 40028-4 0 09709 2 26536 099.1552 152.8823 0009620 238.5243 121.4987 14.12483617398018 NOAA-17 1 27453U 02032A 08163.78246482 .00000144 00000-0 81204-4 0 09625 2 27453 098.5341 228.5650 0012769 121.7928 238.4484 14.23980532310033 NOAA-18 1 28654U 05018A 08163.80601712 .00000236 00000-0 15515-3 0 04639 2 28654 098.8674 104.8015 0013934 332.9521 027.0914 14.11170942157717 HUBBLE 1 20580U 90037B 08163.88919472 .00000243 00000-0 59602-5 0 01561 2 20580 028.4691 357.7789 0003451 326.0892 033.9476 15.00384978794182 PO-34 1 25520U 98064B 08163.53955548 .00000362 00000-0 80323-5 0 132 2 25520 028.4597 216.5901 0005668 221.6284 138.3876 15.17200016532307 ISS 1 25544U 98067A 08163.84755287 .00000206 00000-0 53030-5 0 06489 2 25544 051.6402 043.9198 0005684 321.9601 133.8438 15.76737382547688 CO-58 1 28895U 05043F 08163.70506987 -.00000045 00000-0 23526-6 0 00449 2 28895 098.0994 057.8347 0018966 068.6168 291.7051 14.59674668139680 NCUBE2 1 28897U 05043H 08163.25899404 .00000096 00000-0 29665-4 0 05741 2 28897 098.0977 057.3301 0018426 069.4056 290.9120 14.59845549131907 FCAL 1 29667U 06055J 08146.34060426 .11864717 12752-4 73624-4 0 9790 2 29667 051.6107 065.3702 0009039 260.8350 099.5042 16.53464210 82911 FALCON 1 30776U 07006E 08163.52945353 .00000155 00000-0 14344-4 0 03401 2 30776 035.4336 187.8078 0001891 329.3662 030.6943 15.03001712069299 MAST 1 31126U 07012K 08163.66491756 .00000024 00000-0 16334-4 0 03491 2 31126 098.0377 228.3181 0094936 349.8340 010.0913 14.53427304061213 CAPE1 1 31130U 07012P 08163.61015881 .00000076 00000-0 28674-4 0 03286 2 31130 098.0404 227.2881 0102708 352.8084 007.1639 14.51968039060911 CUTE1-7 1 32785U 08021C 08164.72894561 -.00000077 00000-0 -30115-5 0 742 2 32785 097.9912 224.6595 0015388 146.6951 213.5232 14.81364940 6749 COMPASS 1 32787U 08021E 08164.32218107 .00000093 00000-0 18784-4 0 648 2 32787 097.9880 224.2300 0016460 150.0603 210.1557 14.81418115 6680 AAUSAT2 1 32788U 08021F 08163.57597459 .00000184 00000-0 30310-4 0 00678 2 32788 097.9899 223.4948 0016157 151.0195 209.1925 14.81526884006578 DO-64 1 32789U 08021G 08164.72817617 .00000290 00000-0 43914-4 0 737 2 32789 097.9909 224.6497 0016291 147.3355 212.8867 14.81403320 6742 SEEDS 1 32791U 08021J 08164.79925942 .00000019 00000-0 93763-5 0 623 2 32791 097.9934 224.7148 0016487 145.5468 214.6806 14.81277713 6725 CANX-2 1 32797U 08021L 08163.10790743 .00002234 00000-0 28956-3 0 274 2 32797 097.9937 223.0604 0018095 155.5662 241.6189 14.81708995 5181 /EX